Tracking 27112 objects as of 28-Mar-2023
HD Live streaming from Space Station
objects crossing your sky now

STARLINK-4284

Track STARLINK-4284 now!
10-day predictions
STARLINK-4284 is classified as:


NORAD ID: 53023
Int'l Code: 2022-076AP
Perigee: 545.8 km
Apogee: 547.8 km
Inclination: 53.2 °
Period: 95.4 minutes
Semi major axis: 6917 km
RCS: Unknown
Launch date: July 7, 2022
Source: United States (US)
Launch site: AIR FORCE EASTERN TEST RANGE (AFETR)
Your satellite tracking list
Your tracking list is empty




NASA's NSSDC Master Catalog

Two Line Element Set (TLE):
1 53023U 22076AP  23086.60370607  .00025766  00000-0  16295-2 0  9999
2 53023  53.2157 243.8247 0001473  52.3850 307.7276 15.08875891 40239
Source of the keplerian elements: AFSPC